AAL828 MMMX-KCLT

Flight info

Callsign AAL828
Flight time 3h 5m
Altitude 35000
Route IKLAN UT141 TAM UM575 CLONN M575 TBD MGM BESTT JONZE5
Aircraft B738/M-VGDW/C

Departure

Time 2026-05-06 17:34
Airport Mexico City Benito Juárez International Airport (MMMX)

Arrival

Time 2026-05-06 20:39
Airport Charlotte Douglas International Airport (KCLT)
Time Latitude Longitude Altitude Speed Heading
2026-05-06 17:11 19.43781 -99.07728 7301 ft 0 kts 249°
2026-05-06 17:21 19.43786 -99.07712 7301 ft 2 kts 253°
2026-05-06 17:21 19.43790 -99.07696 7301 ft 2 kts 259°
2026-05-06 17:22 19.43792 -99.07678 7301 ft 2 kts 271°
2026-05-06 17:22 19.43790 -99.07661 7301 ft 2 kts 289°
2026-05-06 17:22 19.43783 -99.07645 7301 ft 2 kts 299°
2026-05-06 17:22 19.43778 -99.07629 7301 ft 2 kts 266°
2026-05-06 17:23 19.43782 -99.07612 7301 ft 2 kts 246°
2026-05-06 17:23 19.43789 -99.07597 7301 ft 2 kts 238°
2026-05-06 17:23 19.43792 -99.07592 7301 ft 0 kts 237°
2026-05-06 17:25 19.43791 -99.07593 7301 ft 2 kts 231°
2026-05-06 17:26 19.43750 -99.07599 7301 ft 8 kts 158°
2026-05-06 17:26 19.43700 -99.07610 7301 ft 8 kts 220°
2026-05-06 17:26 19.43670 -99.07656 7301 ft 7 kts 239°
2026-05-06 17:26 19.43644 -99.07702 7301 ft 7 kts 239°
2026-05-06 17:27 19.43618 -99.07749 7301 ft 8 kts 240°
2026-05-06 17:27 19.43592 -99.07797 7301 ft 8 kts 239°
2026-05-06 17:27 19.43565 -99.07845 7301 ft 8 kts 240°
2026-05-06 17:27 19.43537 -99.07897 7301 ft 9 kts 239°
2026-05-06 17:28 19.43499 -99.07965 7302 ft 12 kts 239°
2026-05-06 17:28 19.43451 -99.08048 7302 ft 14 kts 239°
2026-05-06 17:28 19.43404 -99.08134 7301 ft 13 kts 239°
2026-05-06 17:28 19.43358 -99.08216 7301 ft 13 kts 240°
2026-05-06 17:29 19.43314 -99.08296 7301 ft 12 kts 240°
2026-05-06 17:29 19.43271 -99.08373 7301 ft 12 kts 236°
2026-05-06 17:29 19.43226 -99.08448 7300 ft 12 kts 238°
2026-05-06 17:29 19.43185 -99.08521 7300 ft 11 kts 239°
2026-05-06 17:30 19.43145 -99.08594 7300 ft 11 kts 239°
2026-05-06 17:30 19.43106 -99.08664 7300 ft 11 kts 239°
2026-05-06 17:30 19.43068 -99.08732 7299 ft 11 kts 239°
2026-05-06 17:30 19.43032 -99.08798 7300 ft 10 kts 239°
2026-05-06 17:31 19.43002 -99.08850 7300 ft 4 kts 238°
2026-05-06 17:31 19.42984 -99.08880 7300 ft 9 kts 238°
2026-05-06 17:31 19.42936 -99.08964 7300 ft 14 kts 238°
2026-05-06 17:31 19.42879 -99.09031 7300 ft 8 kts 212°
2026-05-06 17:32 19.42854 -99.09047 7300 ft 0 kts 210°
2026-05-06 17:32 19.42833 -99.09059 7300 ft 9 kts 209°
2026-05-06 17:32 19.42775 -99.09082 7300 ft 9 kts 173°
2026-05-06 17:32 19.42771 -99.09028 7301 ft 9 kts 72°
2026-05-06 17:33 19.42814 -99.08948 7301 ft 28 kts 58°
2026-05-06 17:33 19.43024 -99.08573 7299 ft 91 kts 59°
2026-05-06 17:33 19.43453 -99.07810 7303 ft 147 kts 59°
2026-05-06 17:33 19.44066 -99.06721 7316 ft 194 kts 59°
2026-05-06 17:34 19.44780 -99.05457 7991 ft 200 kts 59°
2026-05-06 17:34 19.45501 -99.04183 8814 ft 210 kts 59°
2026-05-06 17:34 19.46285 -99.02791 9109 ft 231 kts 59°
2026-05-06 17:34 19.47131 -99.01284 9255 ft 246 kts 59°
2026-05-06 17:35 19.48034 -98.99672 9361 ft 262 kts 59°
2026-05-06 17:35 19.48995 -98.97954 9413 ft 279 kts 59°
2026-05-06 17:35 19.50020 -98.96123 9506 ft 296 kts 59°
2026-05-06 17:36 19.52097 -98.92418 10598 ft 298 kts 59°
2026-05-06 17:36 19.53088 -98.90655 10710 ft 316 kts 58°
2026-05-06 17:36 19.54445 -98.88729 10862 ft 335 kts 49°
2026-05-06 17:36 19.55501 -98.87504 11023 ft 344 kts 47°
2026-05-06 17:37 19.57183 -98.85643 11368 ft 352 kts 47°
2026-05-06 17:37 19.58885 -98.83764 11906 ft 354 kts 47°
2026-05-06 17:37 19.61135 -98.81236 12689 ft 356 kts 48°
2026-05-06 17:37 19.62826 -98.79306 13255 ft 358 kts 48°
2026-05-06 17:38 19.63969 -98.77992 13621 ft 360 kts 49°
2026-05-06 17:38 19.65670 -98.76029 14143 ft 362 kts 49°
2026-05-06 17:38 19.67359 -98.74076 14621 ft 365 kts 49°
2026-05-06 17:38 19.69094 -98.72081 15174 ft 370 kts 46°
2026-05-06 17:39 19.71190 -98.70471 15587 ft 377 kts 26°
2026-05-06 17:39 19.73728 -98.69712 16056 ft 384 kts
2026-05-06 17:39 19.76411 -98.69501 16525 ft 388 kts
2026-05-06 17:39 19.79097 -98.69361 16941 ft 393 kts
2026-05-06 17:40 19.81852 -98.69221 17368 ft 397 kts
2026-05-06 17:40 19.84628 -98.69064 17810 ft 401 kts
2026-05-06 17:40 19.87426 -98.68889 18236 ft 404 kts
2026-05-06 17:40 19.90253 -98.68701 18599 ft 408 kts
2026-05-06 17:41 19.93101 -98.68508 18979 ft 411 kts
2026-05-06 17:41 19.95953 -98.68539 19224 ft 420 kts 350°
2026-05-06 17:41 19.98708 -98.69557 19724 ft 419 kts 330°
2026-05-06 17:41 20.01134 -98.71294 20135 ft 420 kts 322°
2026-05-06 17:42 20.03486 -98.73165 20610 ft 420 kts 322°
2026-05-06 17:42 20.05793 -98.75014 21033 ft 422 kts 322°
2026-05-06 17:42 20.08164 -98.76893 21382 ft 426 kts 322°
2026-05-06 17:42 20.10571 -98.78770 21757 ft 429 kts 322°
2026-05-06 17:43 20.12996 -98.80645 22134 ft 431 kts 322°
2026-05-06 17:43 20.15434 -98.82528 22539 ft 433 kts 322°
2026-05-06 17:43 20.17873 -98.84433 22926 ft 436 kts 322°
2026-05-06 17:43 20.20326 -98.86359 23298 ft 438 kts 321°
2026-05-06 17:44 20.22814 -98.88188 23614 ft 443 kts 331°
2026-05-06 17:44 20.25741 -98.89267 23866 ft 449 kts 350°
2026-05-06 17:44 20.28856 -98.89420 24284 ft 448 kts
2026-05-06 17:44 20.31983 -98.89316 24624 ft 450 kts
2026-05-06 17:45 20.35129 -98.89212 24887 ft 453 kts
2026-05-06 17:45 20.38293 -98.89149 25116 ft 456 kts 360°
2026-05-06 17:45 20.41438 -98.89045 25398 ft 459 kts
2026-05-06 17:45 20.44529 -98.88142 25658 ft 462 kts 25°
2026-05-06 17:46 20.47266 -98.86358 26003 ft 461 kts 36°
2026-05-06 17:46 20.49874 -98.84343 26290 ft 463 kts 36°
2026-05-06 17:46 20.52476 -98.82290 26490 ft 466 kts 37°
2026-05-06 17:46 20.55086 -98.80218 26734 ft 468 kts 37°
2026-05-06 17:47 20.57672 -98.78177 27015 ft 468 kts 37°
2026-05-06 17:47 20.60322 -98.76104 27236 ft 472 kts 36°
2026-05-06 17:47 20.62992 -98.74033 27454 ft 474 kts 36°
2026-05-06 17:47 20.65647 -98.71983 27667 ft 477 kts 36°
2026-05-06 17:48 20.68347 -98.69901 27915 ft 478 kts 36°
2026-05-06 17:48 20.71063 -98.67809 28126 ft 481 kts 36°
2026-05-06 17:48 20.73790 -98.65707 28367 ft 482 kts 36°
2026-05-06 17:48 20.76484 -98.63629 28610 ft 484 kts 36°
2026-05-06 17:49 20.79226 -98.61513 28826 ft 486 kts 36°
2026-05-06 17:49 20.81979 -98.59384 29007 ft 487 kts 36°
2026-05-06 17:49 20.84737 -98.57253 29208 ft 489 kts 36°
2026-05-06 17:49 20.87496 -98.55120 29485 ft 489 kts 36°
2026-05-06 17:50 20.90258 -98.52983 29755 ft 489 kts 36°
2026-05-06 17:50 20.92987 -98.50870 29996 ft 490 kts 36°
2026-05-06 17:50 20.95749 -98.48731 30183 ft 491 kts 36°
2026-05-06 17:50 20.98519 -98.46585 30452 ft 490 kts 36°
2026-05-06 17:51 21.01280 -98.44444 30758 ft 488 kts 36°
2026-05-06 17:51 21.04030 -98.42311 31074 ft 486 kts 36°
2026-05-06 17:51 21.06774 -98.40182 31332 ft 486 kts 36°
2026-05-06 17:51 21.09477 -98.38084 31598 ft 485 kts 36°
2026-05-06 17:52 21.12213 -98.35958 31872 ft 485 kts 36°
2026-05-06 17:52 21.14946 -98.33835 32151 ft 484 kts 36°
2026-05-06 17:52 21.17672 -98.31715 32484 ft 482 kts 36°
2026-05-06 17:52 21.20388 -98.29602 32807 ft 480 kts 36°
2026-05-06 17:53 21.23061 -98.27523 33082 ft 479 kts 36°
2026-05-06 17:53 21.25697 -98.25320 33323 ft 479 kts 41°
2026-05-06 17:53 21.28130 -98.22859 33595 ft 479 kts 44°
2026-05-06 17:53 21.30454 -98.20364 33876 ft 477 kts 45°
2026-05-06 17:54 21.32787 -98.17834 34128 ft 476 kts 45°
2026-05-06 17:54 21.35134 -98.15321 34346 ft 476 kts 44°
2026-05-06 17:54 21.37496 -98.12828 34534 ft 476 kts 44°
2026-05-06 17:54 21.39867 -98.10350 34736 ft 475 kts 44°
2026-05-06 17:55 21.44732 -98.05492 34787 ft 478 kts 35°
2026-05-06 17:55 21.50562 -98.02309 34799 ft 472 kts 15°
2026-05-06 17:56 21.56955 -98.00894 34803 ft 468 kts
2026-05-06 17:56 21.63372 -97.99683 34805 ft 467 kts
2026-05-06 17:57 21.69789 -97.98421 34798 ft 467 kts
2026-05-06 17:57 21.76153 -97.97129 34794 ft 468 kts
2026-05-06 17:58 21.82578 -97.95812 34801 ft 468 kts
2026-05-06 17:58 21.88949 -97.94510 34797 ft 469 kts
2026-05-06 17:59 21.95368 -97.93198 34795 ft 469 kts
2026-05-06 17:59 22.01804 -97.91881 34801 ft 470 kts
2026-05-06 18:00 22.08242 -97.90562 34801 ft 471 kts
2026-05-06 18:00 22.14642 -97.89250 34808 ft 471 kts
2026-05-06 18:01 22.21096 -97.87925 34806 ft 471 kts
2026-05-06 18:01 22.27494 -97.86488 34809 ft 473 kts 15°
2026-05-06 18:02 22.33477 -97.83454 34803 ft 476 kts 31°
2026-05-06 18:02 22.39059 -97.79559 34796 ft 477 kts 32°
2026-05-06 18:03 22.44615 -97.75683 34796 ft 477 kts 31°
2026-05-06 18:03 22.50231 -97.71837 34805 ft 477 kts 31°
2026-05-06 18:04 22.55855 -97.68004 34808 ft 477 kts 31°
2026-05-06 18:04 22.61440 -97.64190 34814 ft 477 kts 31°
2026-05-06 18:05 22.67057 -97.60347 34810 ft 477 kts 31°
2026-05-06 18:05 22.72652 -97.56514 34811 ft 477 kts 31°
2026-05-06 18:06 22.78275 -97.52656 34808 ft 477 kts 31°
2026-05-06 18:06 22.83884 -97.48804 34811 ft 477 kts 31°
2026-05-06 18:07 22.89466 -97.44967 34811 ft 477 kts 31°
2026-05-06 18:07 22.95085 -97.41101 34813 ft 477 kts 31°
2026-05-06 18:08 23.00651 -97.37266 34813 ft 477 kts 31°
2026-05-06 18:08 23.06264 -97.33396 34815 ft 477 kts 31°
2026-05-06 18:09 23.11883 -97.29517 34817 ft 477 kts 31°
2026-05-06 18:09 23.17460 -97.25663 34816 ft 477 kts 31°
2026-05-06 18:10 23.23066 -97.21776 34819 ft 477 kts 31°
2026-05-06 18:10 23.28673 -97.17885 34827 ft 478 kts 31°
2026-05-06 18:11 23.34247 -97.14020 34825 ft 478 kts 31°
2026-05-06 18:11 23.39872 -97.10122 34825 ft 478 kts 31°
2026-05-06 18:12 23.45493 -97.06223 34822 ft 478 kts 31°
2026-05-06 18:12 23.51082 -97.02339 34825 ft 479 kts 31°
2026-05-06 18:13 23.56708 -96.98425 34826 ft 479 kts 31°
2026-05-06 18:13 23.62340 -96.94503 34828 ft 479 kts 30°
2026-05-06 18:14 23.67933 -96.90604 34828 ft 480 kts 30°
2026-05-06 18:14 23.73580 -96.86664 34828 ft 480 kts 30°
2026-05-06 18:15 23.79178 -96.82751 34828 ft 480 kts 31°
2026-05-06 18:15 23.84816 -96.78805 34834 ft 480 kts 31°
2026-05-06 18:16 23.90413 -96.74883 34833 ft 480 kts 31°
2026-05-06 18:16 23.96046 -96.70932 34838 ft 480 kts 30°
2026-05-06 18:17 24.01682 -96.66974 34836 ft 481 kts 30°
2026-05-06 18:17 24.07288 -96.63035 34836 ft 481 kts 30°
2026-05-06 18:18 24.12928 -96.59067 34838 ft 481 kts 30°
2026-05-06 18:18 24.18569 -96.55093 34838 ft 481 kts 31°
2026-05-06 18:19 24.24161 -96.51149 34839 ft 481 kts 31°
2026-05-06 18:19 24.29802 -96.47166 34842 ft 481 kts 30°
2026-05-06 18:20 24.35420 -96.43195 34840 ft 481 kts 30°
2026-05-06 18:20 24.41059 -96.39204 34845 ft 481 kts 30°
2026-05-06 18:21 24.46658 -96.35238 34846 ft 481 kts 30°
2026-05-06 18:21 24.52297 -96.31239 34850 ft 482 kts 30°
2026-05-06 18:22 24.57943 -96.27230 34850 ft 482 kts 30°
2026-05-06 18:22 24.63551 -96.23244 34852 ft 482 kts 30°
2026-05-06 18:23 24.68246 -96.19906 34855 ft 482 kts 30°
2026-05-06 18:23 24.74797 -96.15249 34855 ft 482 kts 30°
2026-05-06 18:24 24.79492 -96.11908 34855 ft 482 kts 30°
2026-05-06 18:24 24.85141 -96.07882 34851 ft 482 kts 31°
2026-05-06 18:25 24.90733 -96.03892 34862 ft 482 kts 30°
2026-05-06 18:25 24.96364 -95.99871 34855 ft 482 kts 30°
2026-05-06 18:26 25.01995 -95.95846 34856 ft 482 kts 30°
2026-05-06 18:26 25.07600 -95.91833 34860 ft 482 kts 30°
2026-05-06 18:27 25.13229 -95.87798 34860 ft 482 kts 30°
2026-05-06 18:27 25.18861 -95.83756 34863 ft 482 kts 30°
2026-05-06 18:28 25.24465 -95.79730 34873 ft 482 kts 30°
2026-05-06 18:28 25.30092 -95.75683 34869 ft 483 kts 30°
2026-05-06 18:29 25.35731 -95.71622 34864 ft 483 kts 30°
2026-05-06 18:29 25.41336 -95.67581 34866 ft 483 kts 30°
2026-05-06 18:30 25.46984 -95.63505 34869 ft 484 kts 30°
2026-05-06 18:30 25.52592 -95.59452 34869 ft 484 kts 30°
2026-05-06 18:31 25.58246 -95.55362 34873 ft 484 kts 30°
2026-05-06 18:31 25.63839 -95.51156 34854 ft 488 kts 37°
2026-05-06 18:32 25.68737 -95.45928 34874 ft 490 kts 43°
2026-05-06 18:32 25.73491 -95.40557 34875 ft 490 kts 43°
2026-05-06 18:33 25.78295 -95.35172 34867 ft 490 kts 43°
2026-05-06 18:33 25.83123 -95.29814 34874 ft 490 kts 43°
2026-05-06 18:34 25.87923 -95.24503 34886 ft 490 kts 43°
2026-05-06 18:34 25.92756 -95.19149 34875 ft 490 kts 43°
2026-05-06 18:35 25.97596 -95.13778 34877 ft 490 kts 43°
2026-05-06 18:35 26.02388 -95.08451 34876 ft 490 kts 43°
2026-05-06 18:36 26.07227 -95.03066 34877 ft 490 kts 43°
2026-05-06 18:36 26.12024 -94.97722 34881 ft 490 kts 43°
2026-05-06 18:37 26.16849 -94.92339 34882 ft 490 kts 43°
2026-05-06 18:37 26.21673 -94.86951 34885 ft 491 kts 43°
2026-05-06 18:38 26.26470 -94.81586 34885 ft 491 kts 43°
2026-05-06 18:38 26.31290 -94.76189 34883 ft 491 kts 43°
2026-05-06 18:39 26.36114 -94.70780 34880 ft 491 kts 43°
2026-05-06 18:40 26.43327 -94.62681 34885 ft 492 kts 43°
2026-05-06 18:40 26.48160 -94.57245 34882 ft 492 kts 43°
2026-05-06 18:41 26.52954 -94.51847 34893 ft 492 kts 42°
2026-05-06 18:41 26.57790 -94.46394 34890 ft 493 kts 43°
2026-05-06 18:42 26.62618 -94.40943 34894 ft 493 kts 43°
2026-05-06 18:42 26.67423 -94.35511 34892 ft 493 kts 43°
2026-05-06 18:43 26.72261 -94.30035 34894 ft 493 kts 43°
2026-05-06 18:43 26.77066 -94.24590 34899 ft 493 kts 43°
2026-05-06 18:44 26.81896 -94.19109 34907 ft 494 kts 42°
2026-05-06 18:44 26.86723 -94.13624 34900 ft 494 kts 42°
2026-05-06 18:45 26.91528 -94.08157 34904 ft 494 kts 42°
2026-05-06 18:45 26.96365 -94.02647 34900 ft 494 kts 42°
2026-05-06 18:46 27.01166 -93.97169 34901 ft 495 kts 42°
2026-05-06 18:46 27.05994 -93.91654 34908 ft 495 kts 42°
2026-05-06 18:47 27.10798 -93.86162 34906 ft 495 kts 42°
2026-05-06 18:47 27.15628 -93.80638 34911 ft 495 kts 42°
2026-05-06 18:48 27.20460 -93.75104 34911 ft 495 kts 42°
2026-05-06 18:48 27.25255 -93.69603 34912 ft 495 kts 42°
2026-05-06 18:49 27.30085 -93.64053 34909 ft 496 kts 42°
2026-05-06 18:49 27.34886 -93.58530 34912 ft 496 kts 42°
2026-05-06 18:50 27.39709 -93.52975 34909 ft 496 kts 42°
2026-05-06 18:50 27.44536 -93.47408 34936 ft 496 kts 42°
2026-05-06 18:51 27.49363 -93.41833 34926 ft 497 kts 42°
2026-05-06 18:51 27.54155 -93.36290 34920 ft 497 kts 42°
2026-05-06 18:52 27.58995 -93.30685 34912 ft 497 kts 42°
2026-05-06 18:52 27.63800 -93.25112 34918 ft 498 kts 42°
2026-05-06 18:53 27.68636 -93.19497 34916 ft 498 kts 42°
2026-05-06 18:53 27.73481 -93.13867 34922 ft 498 kts 42°
2026-05-06 18:54 27.78288 -93.08275 34918 ft 498 kts 42°
2026-05-06 18:54 27.83124 -93.02639 34926 ft 498 kts 42°
2026-05-06 18:55 27.87924 -92.97037 34916 ft 498 kts 42°
2026-05-06 18:55 27.92757 -92.91389 34918 ft 498 kts 42°
2026-05-06 18:56 27.97544 -92.85787 34927 ft 498 kts 42°
2026-05-06 18:56 28.02352 -92.80152 34933 ft 497 kts 42°
2026-05-06 18:57 28.07155 -92.74515 34932 ft 497 kts 42°
2026-05-06 18:57 28.11973 -92.68854 34933 ft 497 kts 42°
2026-05-06 18:58 28.16751 -92.63232 34937 ft 498 kts 42°
2026-05-06 18:58 28.21562 -92.57561 34938 ft 498 kts 42°
2026-05-06 18:59 28.26343 -92.51918 34937 ft 498 kts 42°
2026-05-06 18:59 28.31138 -92.46250 34934 ft 498 kts 42°
2026-05-06 19:00 28.35940 -92.40563 34949 ft 498 kts 42°
2026-05-06 19:00 28.40748 -92.34862 34941 ft 499 kts 42°
2026-05-06 19:01 28.45552 -92.29157 34941 ft 500 kts 42°
2026-05-06 19:01 28.50334 -92.23470 34941 ft 500 kts 42°
2026-05-06 19:02 28.55155 -92.17729 34937 ft 500 kts 42°
2026-05-06 19:02 28.59946 -92.12015 34943 ft 501 kts 42°
2026-05-06 19:03 28.64764 -92.06260 34945 ft 501 kts 42°
2026-05-06 19:03 28.69549 -92.00538 34949 ft 501 kts 41°
2026-05-06 19:04 28.74357 -91.94779 34949 ft 502 kts 41°
2026-05-06 19:04 28.79170 -91.89006 34946 ft 502 kts 41°
2026-05-06 19:05 28.83986 -91.83221 34951 ft 502 kts 41°
2026-05-06 19:05 28.88770 -91.77466 34950 ft 502 kts 41°
2026-05-06 19:06 28.93583 -91.71667 34948 ft 502 kts 41°
2026-05-06 19:06 28.98356 -91.65911 34961 ft 502 kts 41°
2026-05-06 19:07 29.03159 -91.60107 34954 ft 502 kts 41°
2026-05-06 19:07 29.07969 -91.54289 34954 ft 502 kts 41°
2026-05-06 19:08 29.12740 -91.48507 34963 ft 502 kts 41°
2026-05-06 19:08 29.17535 -91.42689 34961 ft 501 kts 41°
2026-05-06 19:09 29.22301 -91.36898 34966 ft 501 kts 41°
2026-05-06 19:09 29.27085 -91.31075 34973 ft 501 kts 41°
2026-05-06 19:10 29.31869 -91.25245 34968 ft 501 kts 41°
2026-05-06 19:10 29.36621 -91.19446 34973 ft 501 kts 41°
2026-05-06 19:11 29.41398 -91.13607 34973 ft 501 kts 41°
2026-05-06 19:11 29.46145 -91.07796 34973 ft 501 kts 41°
2026-05-06 19:12 29.50920 -91.01941 34972 ft 501 kts 41°
2026-05-06 19:12 29.55661 -90.96121 34986 ft 501 kts 41°
2026-05-06 19:13 29.59618 -90.91255 34997 ft 501 kts 41°
2026-05-06 19:13 29.64384 -90.85388 34995 ft 501 kts 41°
2026-05-06 19:14 29.68839 -90.79220 35005 ft 507 kts 50°
2026-05-06 19:14 29.72824 -90.72484 34997 ft 508 kts 52°
2026-05-06 19:15 29.76746 -90.65714 34999 ft 508 kts 51°
2026-05-06 19:15 29.80691 -90.59012 34992 ft 507 kts 51°
2026-05-06 19:16 29.84686 -90.52300 34999 ft 507 kts 50°
2026-05-06 19:16 29.88688 -90.45586 34989 ft 508 kts 50°
2026-05-06 19:17 29.92658 -90.38912 34998 ft 508 kts 50°
2026-05-06 19:17 29.96647 -90.32188 35004 ft 507 kts 50°
2026-05-06 19:18 30.00635 -90.25452 34998 ft 507 kts 50°
2026-05-06 19:18 30.04617 -90.18716 35009 ft 507 kts 50°
2026-05-06 19:19 30.08571 -90.12016 35013 ft 507 kts 51°
2026-05-06 19:19 30.12545 -90.05269 35017 ft 507 kts 50°
2026-05-06 19:20 30.16493 -89.98558 34980 ft 507 kts 50°
2026-05-06 19:20 30.20454 -89.91813 34985 ft 506 kts 50°
2026-05-06 19:21 30.24407 -89.85070 34997 ft 506 kts 50°
2026-05-06 19:21 30.28340 -89.78349 35000 ft 506 kts 50°
2026-05-06 19:22 30.32288 -89.71591 35002 ft 505 kts 50°
2026-05-06 19:22 30.36205 -89.64876 34991 ft 505 kts 50°
2026-05-06 19:23 30.40139 -89.58121 35016 ft 505 kts 50°
2026-05-06 19:23 30.44082 -89.51340 35034 ft 506 kts 50°
2026-05-06 19:24 30.47995 -89.44597 35023 ft 507 kts 50°
2026-05-06 19:24 30.51939 -89.37789 35013 ft 507 kts 50°
2026-05-06 19:25 30.55849 -89.31029 35008 ft 507 kts 50°
2026-05-06 19:25 30.59780 -89.24219 35002 ft 507 kts 50°
2026-05-06 19:26 30.63712 -89.17398 35013 ft 507 kts 50°
2026-05-06 19:26 30.67638 -89.10575 35009 ft 508 kts 50°
2026-05-06 19:27 30.71541 -89.03780 35006 ft 508 kts 50°
2026-05-06 19:27 30.75463 -88.96939 35010 ft 508 kts 50°
2026-05-06 19:28 30.79387 -88.90086 35004 ft 508 kts 50°
2026-05-06 19:28 30.83285 -88.83263 35009 ft 508 kts 50°
2026-05-06 19:29 30.87200 -88.76400 35014 ft 508 kts 50°
2026-05-06 19:29 30.91076 -88.69593 35020 ft 507 kts 51°
2026-05-06 19:30 30.94982 -88.62722 35035 ft 506 kts 51°
2026-05-06 19:30 30.98855 -88.55898 35031 ft 506 kts 51°
2026-05-06 19:31 31.02745 -88.49030 35018 ft 506 kts 51°
2026-05-06 19:31 31.08533 -88.38791 35001 ft 504 kts 51°
2026-05-06 19:32 31.12365 -88.31997 35008 ft 503 kts 51°
2026-05-06 19:32 31.16216 -88.25157 35004 ft 502 kts 51°
2026-05-06 19:33 31.20057 -88.18324 34991 ft 502 kts 51°
2026-05-06 19:33 31.23862 -88.11542 35024 ft 501 kts 51°
2026-05-06 19:34 31.27687 -88.04715 35009 ft 501 kts 51°
2026-05-06 19:34 31.31491 -87.97911 34995 ft 501 kts 51°
2026-05-06 19:35 31.35313 -87.91064 34995 ft 501 kts 51°
2026-05-06 19:35 31.39099 -87.84268 35005 ft 501 kts 51°
2026-05-06 19:36 31.42902 -87.77430 34992 ft 501 kts 51°
2026-05-06 19:36 31.46689 -87.70610 34996 ft 501 kts 51°
2026-05-06 19:37 31.50491 -87.63750 35026 ft 501 kts 51°
2026-05-06 19:37 31.54295 -87.56875 34998 ft 502 kts 51°
2026-05-06 19:38 31.58096 -87.49991 34997 ft 502 kts 51°
2026-05-06 19:38 31.61867 -87.43151 34985 ft 502 kts 51°
2026-05-06 19:39 31.65655 -87.36267 34997 ft 502 kts 52°
2026-05-06 19:39 31.69445 -87.29368 34987 ft 501 kts 52°
2026-05-06 19:40 31.73224 -87.22475 35003 ft 501 kts 52°
2026-05-06 19:40 31.76972 -87.15627 35042 ft 501 kts 52°
2026-05-06 19:41 31.80755 -87.08704 35013 ft 502 kts 52°
2026-05-06 19:41 31.84532 -87.01779 35004 ft 503 kts 52°
2026-05-06 19:42 31.88288 -86.94878 35004 ft 503 kts 52°
2026-05-06 19:42 31.92072 -86.87914 35012 ft 503 kts 52°
2026-05-06 19:43 31.95843 -86.80961 35017 ft 504 kts 52°
2026-05-06 19:43 31.99589 -86.74042 35021 ft 504 kts 52°
2026-05-06 19:44 32.03361 -86.67062 35047 ft 504 kts 51°
2026-05-06 19:44 32.07139 -86.60059 35032 ft 505 kts 51°
2026-05-06 19:45 32.10916 -86.53044 35032 ft 506 kts 51°
2026-05-06 19:45 32.14674 -86.46050 35038 ft 507 kts 51°
2026-05-06 19:46 32.18461 -86.38988 35035 ft 508 kts 51°
2026-05-06 19:46 32.22225 -86.31959 35038 ft 509 kts 51°
2026-05-06 19:47 32.26154 -86.24998 35031 ft 507 kts 49°
2026-05-06 19:47 32.30200 -86.18159 35040 ft 507 kts 49°
2026-05-06 19:48 32.34208 -86.11352 35018 ft 507 kts 49°
2026-05-06 19:48 32.38202 -86.04485 35008 ft 506 kts 49°
2026-05-06 19:49 32.42177 -85.97609 35012 ft 504 kts 49°
2026-05-06 19:49 32.46104 -85.90800 35014 ft 503 kts 49°
2026-05-06 19:50 32.50051 -85.83951 35015 ft 501 kts 49°
2026-05-06 19:50 32.53984 -85.77115 35032 ft 500 kts 49°
2026-05-06 19:51 32.57878 -85.70337 35056 ft 500 kts 50°
2026-05-06 19:51 32.61798 -85.63500 35059 ft 500 kts 50°
2026-05-06 19:52 32.65719 -85.56648 35071 ft 501 kts 50°
2026-05-06 19:52 32.69615 -85.49827 35071 ft 501 kts 50°
2026-05-06 19:53 32.73533 -85.42956 35075 ft 502 kts 50°
2026-05-06 19:53 32.77427 -85.36113 35058 ft 503 kts 50°
2026-05-06 19:54 32.81346 -85.29214 35041 ft 503 kts 50°
2026-05-06 19:54 32.85269 -85.22296 35039 ft 504 kts 50°
2026-05-06 19:55 32.89164 -85.15413 35035 ft 504 kts 50°
2026-05-06 19:55 32.93087 -85.08468 35040 ft 505 kts 50°
2026-05-06 19:56 32.97008 -85.01515 35042 ft 505 kts 49°
2026-05-06 19:56 33.00902 -84.94594 35033 ft 505 kts 49°
2026-05-06 19:57 33.04822 -84.87616 35036 ft 505 kts 49°
2026-05-06 19:57 33.08709 -84.80683 35044 ft 505 kts 49°
2026-05-06 19:58 33.12621 -84.73693 35036 ft 506 kts 49°
2026-05-06 19:58 33.16525 -84.66703 35049 ft 505 kts 49°
2026-05-06 19:59 33.20398 -84.59756 35040 ft 505 kts 49°
2026-05-06 19:59 33.24288 -84.52764 35040 ft 504 kts 49°
2026-05-06 20:00 33.28175 -84.45768 35047 ft 503 kts 49°
2026-05-06 20:00 33.32022 -84.38826 35034 ft 503 kts 49°
2026-05-06 20:01 33.35864 -84.31883 35060 ft 502 kts 49°
2026-05-06 20:01 33.39726 -84.24891 35055 ft 502 kts 49°
2026-05-06 20:02 33.42930 -84.19079 35051 ft 502 kts 49°
2026-05-06 20:02 33.47398 -84.10959 35039 ft 502 kts 49°
2026-05-06 20:03 33.50596 -84.05135 35006 ft 502 kts 49°
2026-05-06 20:03 33.54440 -83.98121 35033 ft 502 kts 49°
2026-05-06 20:04 33.58287 -83.91089 35000 ft 504 kts 50°
2026-05-06 20:04 33.59870 -83.87346 34973 ft 518 kts 66°
2026-05-06 20:04 33.60902 -83.83180 35032 ft 519 kts 70°
2026-05-06 20:05 33.62782 -83.74836 35004 ft 520 kts 70°
2026-05-06 20:05 33.64782 -83.66470 34999 ft 519 kts 69°
2026-05-06 20:06 33.66844 -83.58237 34986 ft 515 kts 64°
2026-05-06 20:06 33.68352 -83.54385 35008 ft 504 kts 53°
2026-05-06 20:06 33.70142 -83.50772 35002 ft 501 kts 51°
2026-05-06 20:07 33.73804 -83.43697 34998 ft 501 kts 51°
2026-05-06 20:07 33.77390 -83.36482 35005 ft 503 kts 52°
2026-05-06 20:08 33.80913 -83.29188 34997 ft 504 kts 53°
2026-05-06 20:08 33.84468 -83.21915 34994 ft 503 kts 51°
2026-05-06 20:09 33.88270 -83.14887 35000 ft 501 kts 48°
2026-05-06 20:09 33.92150 -83.07910 35001 ft 501 kts 48°
2026-05-06 20:10 33.95920 -83.01027 34581 ft 489 kts 49°
2026-05-06 20:10 33.97774 -82.97607 34252 ft 484 kts 49°
2026-05-06 20:10 33.99611 -82.94213 33877 ft 481 kts 50°
2026-05-06 20:11 34.01434 -82.90841 33501 ft 478 kts 50°
2026-05-06 20:11 34.03243 -82.87492 33108 ft 475 kts 50°
2026-05-06 20:11 34.05038 -82.84167 32707 ft 472 kts 50°
2026-05-06 20:11 34.06830 -82.80845 32327 ft 468 kts 50°
2026-05-06 20:12 34.08579 -82.77600 31957 ft 465 kts 50°
2026-05-06 20:12 34.10340 -82.74330 31599 ft 461 kts 50°
2026-05-06 20:12 34.12089 -82.71080 31233 ft 458 kts 50°
2026-05-06 20:12 34.13820 -82.67859 30873 ft 455 kts 50°
2026-05-06 20:13 34.15519 -82.64698 30527 ft 453 kts 51°
2026-05-06 20:13 34.17230 -82.61510 30165 ft 450 kts 51°
2026-05-06 20:13 34.18929 -82.58340 29765 ft 447 kts 51°
2026-05-06 20:13 34.20618 -82.55186 29357 ft 444 kts 51°
2026-05-06 20:14 34.22288 -82.52066 28970 ft 441 kts 51°
2026-05-06 20:14 34.23928 -82.48999 28602 ft 437 kts 51°
2026-05-06 20:14 34.25574 -82.45919 28251 ft 433 kts 51°
2026-05-06 20:14 34.27206 -82.42862 27881 ft 430 kts 51°
2026-05-06 20:15 34.28822 -82.39832 27523 ft 427 kts 51°
2026-05-06 20:15 34.30422 -82.36826 27263 ft 421 kts 51°
2026-05-06 20:15 34.32000 -82.33856 27002 ft 416 kts 51°
2026-05-06 20:15 34.33540 -82.30958 26757 ft 412 kts 51°
2026-05-06 20:16 34.35084 -82.28047 26486 ft 408 kts 51°
2026-05-06 20:16 34.36616 -82.25162 26142 ft 406 kts 51°
2026-05-06 20:16 34.38140 -82.22290 25796 ft 404 kts 51°
2026-05-06 20:16 34.39641 -82.19460 25437 ft 403 kts 51°
2026-05-06 20:17 34.41158 -82.16597 25072 ft 402 kts 51°
2026-05-06 20:17 34.42672 -82.13735 24701 ft 402 kts 51°
2026-05-06 20:17 34.44181 -82.10881 24335 ft 402 kts 51°
2026-05-06 20:17 34.45691 -82.08021 23966 ft 402 kts 51°
2026-05-06 20:18 34.47177 -82.05205 23604 ft 402 kts 51°
2026-05-06 20:18 34.48683 -82.02348 23202 ft 402 kts 51°
2026-05-06 20:18 34.50186 -81.99495 22815 ft 400 kts 51°
2026-05-06 20:18 34.51682 -81.96651 22447 ft 398 kts 51°
2026-05-06 20:19 34.53172 -81.93820 22083 ft 396 kts 51°
2026-05-06 20:19 34.54652 -81.91003 21714 ft 395 kts 51°
2026-05-06 20:19 34.56130 -81.88192 21348 ft 394 kts 51°
2026-05-06 20:19 34.57580 -81.85429 20993 ft 392 kts 51°
2026-05-06 20:20 34.59044 -81.82636 20629 ft 391 kts 52°
2026-05-06 20:20 34.60501 -81.79856 20268 ft 390 kts 52°
2026-05-06 20:20 34.61957 -81.77075 19907 ft 389 kts 52°
2026-05-06 20:20 34.63410 -81.74299 19560 ft 388 kts 52°
2026-05-06 20:21 34.64858 -81.71528 19188 ft 387 kts 52°
2026-05-06 20:21 34.66282 -81.68802 18836 ft 387 kts 52°
2026-05-06 20:21 34.67725 -81.66037 18474 ft 386 kts 52°
2026-05-06 20:21 34.69164 -81.63279 18099 ft 385 kts 52°
2026-05-06 20:22 34.70598 -81.60526 17755 ft 383 kts 52°
2026-05-06 20:22 34.72026 -81.57783 17378 ft 382 kts 52°
2026-05-06 20:22 34.73427 -81.55091 17032 ft 380 kts 52°
2026-05-06 20:22 34.74835 -81.52385 16676 ft 377 kts 52°
2026-05-06 20:23 34.76385 -81.49846 16328 ft 370 kts 43°
2026-05-06 20:23 34.78133 -81.47573 16010 ft 365 kts 39°
2026-05-06 20:23 34.79925 -81.45385 15674 ft 363 kts 38°
2026-05-06 20:23 34.81703 -81.43216 15337 ft 361 kts 39°
2026-05-06 20:24 34.83446 -81.41057 15005 ft 360 kts 39°
2026-05-06 20:24 34.85193 -81.38858 14652 ft 359 kts 40°
2026-05-06 20:24 34.86921 -81.36657 14318 ft 358 kts 40°
2026-05-06 20:24 34.88640 -81.34455 13968 ft 358 kts 41°
2026-05-06 20:25 34.90355 -81.32251 13606 ft 357 kts 41°
2026-05-06 20:25 34.92060 -81.30059 13248 ft 355 kts 41°
2026-05-06 20:25 34.93756 -81.27877 12913 ft 353 kts 41°
2026-05-06 20:25 34.95419 -81.25736 12567 ft 352 kts 41°
2026-05-06 20:26 34.97099 -81.23572 12216 ft 350 kts 41°
2026-05-06 20:26 34.98768 -81.21422 11883 ft 348 kts 41°
2026-05-06 20:26 35.00430 -81.19279 11559 ft 346 kts 41°
2026-05-06 20:26 35.02079 -81.17151 11248 ft 344 kts 41°
2026-05-06 20:27 35.03718 -81.15035 10929 ft 341 kts 41°
2026-05-06 20:27 35.05342 -81.12936 10696 ft 336 kts 41°
2026-05-06 20:27 35.06929 -81.10881 10557 ft 328 kts 41°
2026-05-06 20:27 35.08479 -81.08873 10405 ft 321 kts 41°
2026-05-06 20:28 35.10065 -81.07076 10252 ft 306 kts 24°
2026-05-06 20:28 35.11962 -81.06193 10145 ft 281 kts
2026-05-06 20:28 35.13842 -81.06091 9966 ft 265 kts 348°
2026-05-06 20:28 35.15653 -81.06249 9708 ft 257 kts 345°
2026-05-06 20:29 35.17416 -81.06425 9473 ft 251 kts 346°
2026-05-06 20:29 35.19138 -81.06593 9208 ft 247 kts 346°
2026-05-06 20:29 35.20851 -81.06758 8949 ft 246 kts 346°
2026-05-06 20:29 35.22561 -81.06920 8573 ft 245 kts 347°
2026-05-06 20:30 35.24261 -81.07079 8217 ft 244 kts 347°
2026-05-06 20:30 35.27623 -81.07384 7489 ft 243 kts 347°
2026-05-06 20:30 35.29311 -81.07535 7122 ft 242 kts 347°
2026-05-06 20:31 35.30990 -81.07685 6780 ft 242 kts 347°
2026-05-06 20:31 35.32673 -81.07835 6424 ft 242 kts 347°
2026-05-06 20:31 35.34357 -81.07986 6038 ft 242 kts 347°
2026-05-06 20:31 35.36012 -81.08250 5676 ft 237 kts 341°
2026-05-06 20:32 35.37633 -81.08632 5308 ft 236 kts 341°
2026-05-06 20:32 35.39244 -81.08984 4958 ft 242 kts 350°
2026-05-06 20:32 35.40929 -81.08590 4563 ft 255 kts 23°
2026-05-06 20:32 35.42277 -81.07181 4194 ft 260 kts 55°
2026-05-06 20:33 35.43009 -81.05188 4078 ft 255 kts 72°
2026-05-06 20:33 35.43440 -81.03087 4036 ft 256 kts 94°
2026-05-06 20:33 35.43079 -81.01009 4049 ft 244 kts 118°
2026-05-06 20:33 35.42405 -80.99156 4005 ft 228 kts 121°
2026-05-06 20:34 35.41656 -80.97582 3981 ft 199 kts 146°
2026-05-06 20:34 35.40475 -80.96964 4030 ft 183 kts 181°
2026-05-06 20:34 35.39232 -80.96791 3923 ft 178 kts 181°
2026-05-06 20:34 35.38044 -80.96648 3700 ft 163 kts 184°
2026-05-06 20:35 35.36954 -80.96543 3491 ft 150 kts 185°
2026-05-06 20:35 35.35941 -80.96454 3304 ft 144 kts 186°
2026-05-06 20:35 35.34939 -80.96370 3158 ft 141 kts 184°
2026-05-06 20:35 35.33995 -80.96287 2946 ft 132 kts 185°
2026-05-06 20:36 35.33113 -80.96211 2783 ft 127 kts 185°
2026-05-06 20:36 35.32205 -80.96136 2629 ft 134 kts 186°
2026-05-06 20:36 35.31285 -80.96056 2456 ft 129 kts 186°
2026-05-06 20:36 35.30403 -80.95978 2276 ft 128 kts 184°
2026-05-06 20:37 35.29512 -80.95900 2101 ft 129 kts 184°
2026-05-06 20:37 35.28599 -80.95824 1943 ft 133 kts 182°
2026-05-06 20:37 35.27684 -80.95744 1767 ft 132 kts 183°
2026-05-06 20:37 35.26748 -80.95692 1586 ft 137 kts 181°
2026-05-06 20:38 35.25815 -80.95585 1394 ft 136 kts 180°
2026-05-06 20:38 35.24840 -80.95497 1189 ft 142 kts 182°
2026-05-06 20:38 35.23867 -80.95399 992 ft 136 kts 178°
2026-05-06 20:38 35.22960 -80.95324 791 ft 130 kts 181°
2026-05-06 20:39 35.22103 -80.95256 716 ft 112 kts 181°
2026-05-06 20:39 35.21523 -80.95212 717 ft 53 kts 176°
2026-05-06 20:39 35.21351 -80.95176 721 ft 11 kts 161°
2026-05-06 20:39 35.21259 -80.95125 718 ft 16 kts 152°
2026-05-06 20:40 35.21180 -80.95044 722 ft 15 kts 109°
2026-05-06 20:40 35.21183 -80.94959 722 ft 9 kts 73°
2026-05-06 20:40 35.21220 -80.94880 721 ft 15 kts 55°
2026-05-06 20:40 35.21287 -80.94766 721 ft 17 kts 60°
2026-05-06 20:41 35.21326 -80.94637 720 ft 16 kts 69°
2026-05-06 20:41 35.21397 -80.94509 721 ft 21 kts 47°
2026-05-06 20:41 35.21499 -80.94370 721 ft 22 kts 50°
2026-05-06 20:41 35.21599 -80.94234 723 ft 21 kts 47°
2026-05-06 20:42 35.21695 -80.94100 723 ft 21 kts 49°
2026-05-06 20:42 35.21787 -80.93969 724 ft 20 kts 47°
2026-05-06 20:42 35.21882 -80.93937 725 ft 14 kts
2026-05-06 20:42 35.21953 -80.93868 725 ft 13 kts 47°
2026-05-06 20:43 35.22022 -80.93800 726 ft 13 kts
2026-05-06 20:43 35.22110 -80.93802 727 ft 13 kts 354°
2026-05-06 20:43 35.22185 -80.93838 729 ft 12 kts 297°
2026-05-06 20:43 35.22197 -80.93940 727 ft 12 kts 270°
2026-05-06 20:44 35.22142 -80.93987 728 ft 12 kts 178°
2026-05-06 20:44 35.22115 -80.93985 727 ft 0 kts 177°